This is the latest recevied weather packets stored in our database for station/object VK2XSE. If no packets are shown the sender has not sent any weather packets the latest 10 day(s).
| Time | Temp. | Humidity | Pressure | Rain* | Wind** | Luminosity | Snow |
|---|---|---|---|---|---|---|---|
| 1777445117 | 25.56° C | 33% | 1025.5 hPa | 0 mm | - | 93 W/m² | - |
| 1777444517 | 25.56° C | 33% | 1025.6 hPa | 0 mm | - | 109 W/m² | - |
| 1777443917 | 26.11° C | 33% | 1025.6 hPa | 0 mm | - | 162 W/m² | - |
| 1777443317 | 26.11° C | 32% | 1025.5 hPa | 0 mm | - | 130 W/m² | - |
| 1777442717 | 26.11° C | 33% | 1025.6 hPa | 0 mm | - | 189 W/m² | - |
| 1777442117 | 26.11° C | 32% | 1025.6 hPa | 0 mm | - | 196 W/m² | - |
| 1777441517 | 26.11° C | 32% | 1025.6 hPa | 0 mm | - | 217 W/m² | - |
| 1777440917 | 26.11° C | 32% | 1025.5 hPa | 0 mm | - | 218 W/m² | - |
| 1777440317 | 26.11° C | 33% | 1025.6 hPa | 0 mm | - | 195 W/m² | - |
| 1777439717 | 26.11° C | 33% | 1025.6 hPa | 0 mm | - | 243 W/m² | - |
| 1777439117 | 26.11° C | 33% | 1025.7 hPa | 0 mm | - | 238 W/m² | - |
| 1777438517 | 26.67° C | 31% | 1025.7 hPa | 0 mm | - | 251 W/m² | - |
| 1777437917 | 26.67° C | 31% | 1025.7 hPa | 0 mm | - | 243 W/m² | - |
| 1777437317 | 26.67° C | 30% | 1025.8 hPa | 0 mm | - | 317 W/m² | - |
| 1777436717 | 26.67° C | 31% | 1025.9 hPa | 0 mm | - | 289 W/m² | - |
| 1777436117 | 26.67° C | 31% | 1025.9 hPa | 0 mm | - | 338 W/m² | - |
| 1777435517 | 26.67° C | 31% | 1025.9 hPa | 0 mm | - | 433 W/m² | - |
| 1777434917 | 26.67° C | 31% | 1026 hPa | 0 mm | - | 356 W/m² | - |
| 1777434317 | 27.22° C | 31% | 1026.1 hPa | 0 mm | - | 439 W/m² | - |
| 1777433717 | 27.22° C | 30% | 1026.2 hPa | 0 mm | - | 420 W/m² | - |
| 1777433117 | 27.22° C | 30% | 1026.3 hPa | 0 mm | - | 500 W/m² | - |
| 1777432517 | 27.22° C | 29% | 1026.6 hPa | 0 mm | - | 468 W/m² | - |
| 1777431917 | 27.22° C | 29% | 1026.7 hPa | 0 mm | - | 579 W/m² | - |
| 1777431317 | 27.22° C | 31% | 1026.8 hPa | 0 mm | - | 601 W/m² | - |
| 1777430717 | 27.22° C | 30% | 1027 hPa | 0 mm | - | 592 W/m² | - |
* Rain latest hour (hover to see other rain measurements)
** Current wind speed in m/s (hover to see current wind gust speed)